Regional Weather Roundup
Issued by NWS

Home | Current Version | Previous Version | Graphics & Text | Print | Product List | Glossary On
Versions: 1 2 3 4 5 6 7 8 9 10 11 12 13 14 15 16 17 18 19 20 21 22 23 24 25 26 27 28 29 30 31 32 33 34 35 36 37 38 39 40 41 42 43 44 45 46 47 48 49 50
000
ASUS43 KLOT 301303
RWRIL

ILLINOIS REGIONAL WEATHER ROUNDUP
NATIONAL WEATHER SERVICE CHICAGO/ROMEOVILLE IL
800 AM CDT SUN APR 30 2017

NOTE: "FAIR" INDICATES FEW OR NO CLOUDS BELOW 12,000 FEET WITH NO
SIGNIFICANT WEATHER AND/OR OBSTRUCTIONS TO VISIBILITY.

* THESE STATIONS ARE NOT UNDER NWS QUALITY CONTROL. THEY ALSO MAY NOT
  REPORT WEATHER SUCH AS PRECIPITATION OR FOG.

ILZ001-002-007-009-015-016-024-301400-
NORTHWEST ILLINOIS

CITY           SKY/WX    TMP DP  RH WIND       PRES   REMARKS
MOLINE         CLOUDY    44  41  89 VRB6G21   29.81R
STERLING*      CLOUDY    42  40  92 E23G33    29.78F
SAVANNA*       CLOUDY    42  39  90 NE17G25   29.85R
$$

ILZ003-004-008-010-011-017-018-301400-
NORTH CENTRAL ILLINOIS

CITY           SKY/WX    TMP DP  RH WIND       PRES   REMARKS
ROCKFORD       CLOUDY    42  39  89 E20G33    29.83F
FREEPORT*      CLOUDY    40  39  95 E22G31    29.83F
ROCHELLE*      CLOUDY    41  40  96 NE24G31   29.79F
DE KALB*       CLOUDY    41  40  97 E20G28    29.81F
PERU*          CLOUDY    42  41  97 NE18G24   29.76F
$$

ILZ005-006-012>014-019>023-301400-
NORTHEAST ILLINOIS

CITY           SKY/WX    TMP DP  RH WIND       PRES   REMARKS
CHICAGO-OHARE  LGT RAIN  43  41  93 NE16      29.85F FOG
CHICAGO-MIDWAY LGT RAIN  45  43  93 NE20      29.85F
AURORA         LGT RAIN  43  42  97 NE21G28   29.81F
LANSING*       RAIN      45  45 100 NE8       29.85F
JOLIET*        RAIN      45  45  99 NE12G17   29.80F
WAUKEGAN       LGT RAIN  41  41 100 NE13G22   29.88F FOG
DUPAGE AIRPORT LGT RAIN  42  42 100 NE17      29.83F
KANKAKEE*      DRIZZLE   48  47  97 CALM      29.80F
WHEELING       LGT RAIN  42  42 100 NE10G23   29.89F
MORRIS*        LGT RAIN  44  43  96 NE10G17   29.78F
NORTHERLY ISL    N/A     43  42  97 NE20        N/A
$$

LMZ740>746-301400-
SOUTHERN LAKE MICHIGAN

STATION/POSITION SKY/WX   TEMP    WIND        PRES    VSBY  WAVE
                          AIR SEA DIR/SP/G                  HT/PER
                          (F)     (DEG/KT/KT) (MB)    (MI)  (FT/S)
SOUTHERN BUOY              41 40   50/ 16/ 19 1014.9          4/ 5
HARRISON CRIB              43      40/ 20/ 21   N/A
BURNHAM HARBOR             43      40/ 17/ 18   N/A
CALUMET HARBOR             44      20/ 13/ 15 1011.5F
BURNS HARBOR               47      60/ 10/ 11 1012.2F
MICHIGAN CITY              46      40/  8/  9   N/A
MICHIGAN CITY 6N           46 48                N/A           3/ 6
ST. JOSEPH                 46 46  120/  8/ 10 1013.1F         2/ 6
$$

ILZ025>027-034>036-040-047-049-050-058-095>099-301400-
WEST-CENTRAL ILLINOIS

CITY           SKY/WX    TMP DP  RH WIND       PRES   REMARKS
QUINCY         CLOUDY    48  48 100 N9        29.72R FOG
GALESBURG*     CLOUDY    45  44  98 NE15G23   29.74R
MACOMB*        CLOUDY    46  46 100 W14       29.81R
JACKSONVILLE*  CLOUDY    50  49  99 SE9       29.69R
PITTSFIELD*    CLOUDY    49  49 100 N6        29.71R FOG
$$

ILZ028>032-037-038-041>044-048-051>054-059>061-301400-
CENTRAL ILLINOIS

CITY           SKY/WX    TMP DP  RH WIND       PRES   REMARKS
PONTIAC        LGT RAIN  48  47  97 E17G23    29.77F
BLOOMINGTON    LGT RAIN  50  49  96 E20       29.73F FOG
DECATUR        CLOUDY    55  55 100 E12       29.72F
PEORIA         CLOUDY    49  48  97 NE18G30   29.70F
LACON*         CLOUDY    45  45 100 NE3       29.76R
LINCOLN*       CLOUDY    53  53 100 E9        29.69F
SPRINGFIELD    CLOUDY    52  51  97 E12       29.72F
TAYLORVILLE    CLOUDY    53  53 100 SE14      29.70F FOG
$$

ILZ033-039-045-046-055>057-062-063-301400-
EAST-CENTRAL ILLINOIS

CITY           SKY/WX    TMP DP  RH WIND       PRES   REMARKS
CHAMPAIGN      LGT RAIN  58  56  93 NE9       29.75F
RANTOUL*       RAIN      57  56  99 NE9       29.77S
MATTOON        LGT RAIN  58  58 100 NW3       29.75S
PARIS*         CLOUDY   N/A N/A N/A SE10      29.76S
$$

ILZ079-100>102-301400-
SOUTHWEST ILLINOIS

CITY           SKY/WX    TMP DP  RH WIND       PRES   REMARKS
ALTON          LGT RAIN  54  52  94 E10       29.73R
BELLEVILLE     LGT RAIN  56  56 100 SE9       29.76S
CAHOKIA*       LGT RAIN  58  56  93 SE14      29.73S
SPARTA*        RAIN      61  61 100 NE3       29.78F
$$

ILZ064>066-069>071-074>076-080>082-084>086-088>090-092>094-301400-
SOUTH-CENTRAL ILLINOIS

CITY           SKY/WX    TMP DP  RH WIND       PRES   REMARKS
CARBONDALE     HVY RAIN  63  63 100 SE5       29.80R FOG
CAIRO*         RAIN      64  64  99 E14       29.80F
EFFINGHAM*     RAIN      59  59 100 W8        29.81R
MARION         HVY RAIN  64  64 100 S6        29.82R
MT. VERNON     RAIN      63  63 100 S5        29.80R
CENTRALIA*     RAIN      61  61 100 CALM      29.79R
SALEM*         RAIN      60  59  94 N6        29.78F
METROPOLIS*    HVY RAIN  65  64  97 SE6       29.84F
$$

ILZ067-068-072-073-078-083-087-091-301400-
SOUTHEAST ILLINOIS

CITY           SKY/WX    TMP DP  RH WIND       PRES   REMARKS
LAWRENCEVILLE  LGT RAIN  66  64  93 S15       29.80R
FLORA*         LGT RAIN  65  63  95 W8        29.79S
FAIRFIELD*     RAIN      63  63 100 S6        29.80R
HARRISBURG*    RAIN      64  64  98 S5        29.84R
ROBINSON*      LGT RAIN  65  63  92 SW10      29.81R
CARMI*         RAIN      64  64  99 S10       29.83R
$$

ABBREVIATIONS USED IN REMARKS
   TC - TEMPERATURE IN CELSIUS
  WCI - WIND CHILL INDEX
   HX - HEAT INDEX
  VSB - VISIBILITY
$$




USA.gov is the U.S. government's official web portal to all federal, state and local government web resources and services.